TimeCST,TemperatureF,Dew PointF,Humidity,Sea Level PressureIn,VisibilityMPH,Wind Direction,Wind SpeedMPH,Gust SpeedMPH,PrecipitationIn,Events,Conditions,WindDirDegrees,DateUTC
12:16 AM,24.8,19.4,80,30.22,10.0,NNW,11.5,-,N/A,,Overcast,340,2013-03-06 06:16:00
12:49 AM,23.0,17.6,80,30.23,10.0,North,15.0,-,N/A,,Overcast,350,2013-03-06 06:49:00
12:54 AM,23.0,18.0,81,30.30,10.0,North,16.1,-,N/A,,Overcast,350,2013-03-06 06:54:00
1:54 AM,21.9,17.1,82,30.31,10.0,NNW,15.0,-,N/A,,Overcast,340,2013-03-06 07:54:00
2:54 AM,21.9,16.0,78,30.33,10.0,North,15.0,-,N/A,,Overcast,350,2013-03-06 08:54:00
3:09 AM,21.2,15.8,80,30.27,10.0,NNW,16.1,-,N/A,,Overcast,340,2013-03-06 09:09:00
3:47 AM,19.4,14.0,80,30.28,10.0,NNW,16.1,-,N/A,,Overcast,340,2013-03-06 09:47:00
3:54 AM,19.9,14.0,78,30.35,10.0,NNW,15.0,-,N/A,,Overcast,340,2013-03-06 09:54:00
4:10 AM,19.4,14.0,80,30.29,10.0,North,13.8,-,N/A,,Overcast,350,2013-03-06 10:10:00
4:54 AM,19.0,12.9,77,30.37,10.0,North,15.0,-,N/A,,Overcast,360,2013-03-06 10:54:00
5:36 AM,15.8,10.4,79,30.31,10.0,North,8.1,-,N/A,,Scattered Clouds,350,2013-03-06 11:36:00
5:54 AM,12.9,9.0,84,30.38,10.0,NNW,6.9,-,N/A,,Clear,340,2013-03-06 11:54:00
6:29 AM,12.2,8.6,85,30.33,10.0,NW,9.2,-,N/A,,Mostly Cloudy,310,2013-03-06 12:29:00
6:54 AM,12.0,9.0,88,30.41,3.0,NW,9.2,-,0.00,Snow,Light Snow,320,2013-03-06 12:54:00
7:03 AM,14.0,10.4,86,30.34,2.5,NNW,9.2,-,0.00,Snow,Light Snow,330,2013-03-06 13:03:00
7:24 AM,17.6,12.2,79,30.34,1.8,NNW,10.4,-,0.00,Snow,Light Snow,340,2013-03-06 13:24:00
7:34 AM,17.6,14.0,86,30.34,2.5,NNW,10.4,-,0.00,Snow,Light Snow,340,2013-03-06 13:34:00
7:42 AM,17.6,14.0,86,30.34,4.0,NNW,11.5,-,0.00,Snow,Light Snow,340,2013-03-06 13:42:00
7:54 AM,19.0,15.1,85,30.41,6.0,NNW,12.7,-,0.00,,Overcast,340,2013-03-06 13:54:00
8:46 AM,19.4,14.0,80,30.35,10.0,NNW,17.3,-,N/A,,Overcast,340,2013-03-06 14:46:00
8:54 AM,19.9,14.0,78,30.42,10.0,NNW,17.3,-,N/A,,Overcast,340,2013-03-06 14:54:00
9:54 AM,23.0,15.1,72,30.43,10.0,North,10.4,-,N/A,,Mostly Cloudy,350,2013-03-06 15:54:00
10:08 AM,23.0,14.0,68,30.36,10.0,North,13.8,-,N/A,,Mostly Cloudy,350,2013-03-06 16:08:00
10:54 AM,24.1,15.1,69,30.42,10.0,North,13.8,-,N/A,,Overcast,10,2013-03-06 16:54:00
11:19 AM,24.8,14.0,64,30.36,10.0,North,17.3,-,N/A,,Scattered Clouds,360,2013-03-06 17:19:00
11:45 AM,24.8,14.0,64,30.35,10.0,NNW,13.8,-,N/A,,Mostly Cloudy,340,2013-03-06 17:45:00
11:54 AM,24.1,14.0,65,30.42,10.0,North,13.8,-,N/A,,Mostly Cloudy,350,2013-03-06 17:54:00
12:54 PM,24.1,15.1,69,30.41,10.0,NW,11.5,-,N/A,,Overcast,310,2013-03-06 18:54:00
1:54 PM,24.1,15.1,69,30.39,10.0,NW,10.4,-,N/A,,Scattered Clouds,310,2013-03-06 19:54:00
2:54 PM,24.1,15.1,69,30.38,10.0,NW,10.4,-,N/A,,Clear,310,2013-03-06 20:54:00
3:54 PM,24.8,14.0,64,30.31,10.0,NW,9.2,-,N/A,,Clear,310,2013-03-06 21:54:00
4:54 PM,21.9,12.9,68,30.39,10.0,WNW,10.4,-,N/A,,Clear,290,2013-03-06 22:54:00
5:54 PM,19.0,10.9,71,30.40,10.0,WNW,8.1,-,N/A,,Clear,300,2013-03-06 23:54:00
6:54 PM,19.0,12.9,77,30.40,10.0,NW,6.9,-,N/A,,Clear,310,2013-03-07 00:54:00
7:54 PM,17.1,12.0,81,30.39,9.0,NW,4.6,-,N/A,,Clear,320,2013-03-07 01:54:00
8:54 PM,17.1,12.9,84,30.39,8.0,NNW,4.6,-,N/A,,Clear,330,2013-03-07 02:54:00
9:54 PM,15.1,12.0,88,30.39,6.0,WNW,5.8,-,N/A,,Clear,300,2013-03-07 03:54:00
10:35 PM,12.2,8.6,85,30.32,1.5,West,5.8,-,N/A,,Clear,280,2013-03-07 04:35:00
10:38 PM,10.4,8.6,92,30.32,0.8,WNW,5.8,-,N/A,,Clear,300,2013-03-07 04:38:00
10:46 PM,15.8,12.2,86,30.32,1.8,NW,6.9,-,N/A,,Clear,310,2013-03-07 04:46:00
10:48 PM,15.8,12.2,86,30.32,3.0,WNW,6.9,-,N/A,,Clear,300,2013-03-07 04:48:00
10:54 PM,14.0,10.9,88,30.40,4.0,WNW,6.9,-,N/A,,Clear,300,2013-03-07 04:54:00
11:54 PM,14.0,10.9,88,30.40,3.0,NNW,6.9,-,N/A,,Clear,340,2013-03-07 05:54:00